SCP
1 1 2 2 1 1 1 1 1 1 1 1 1 1 1 1 1 1 1 1 1 1 1 1 0 1 1 1 1 1 1 1 0 1 1 1 1 1 0 0 0 0 0
1 1 2 2 1 1 1 1 1 1 1 1 1 1 1 1 1 1 1 1 1 1 1 1 0 1 1 1 1 1 1 1 0 1 1 1 1 1 0 0 0 0 0
1 1 2 2 2 1 1 1 1 1 1 1 1 1 1 1 1 1 1 1 1 1 1 1 1 1 1 1 1 1 1 1 0 1 1 1 0 0 0 0 0 0 0
1 1 2 2 2 2 1 1 1 1 1 1 1 1 1 1 1 1 1 1 1 1 1 1 1 1 1 1 1 1 1 1 1 1 0 0 0 0 0 0 0 0 0
1 1 2 2 2 2 1 1 1 1 1 1 1 1 1 1 1 1 1 1 1 1 1 1 1 1 1 1 1 1 1 1 1 0 0 0 0 0 0 0 1 1 1
2 2 2 2 3 2 2 1 1 1 1 1 1 1 1 1 1 1 1 1 1 1 1 1 1 1 1 1 1 1 1 1 1 0 0 0 0 0 0 0 1 1 1
2 2 2 3 3 2 2 1 1 1 1 1 1 1 1 1 1 1 1 1 1 1 1 1 1 1 1 1 1 1 1 1 1 0 0 0 0 1 0 0 0 1 1
2 2 2 2 3 2 2 2 1 1 1 1 1 1 1 1 1 1 1 1 1 1 1 1 1 1 1 1 1 1 1 1 0 0 0 0 1 1 1 0 0 1 1
2 2 2 2 2 2 2 1 1 1 1 1 1 1 1 1 1 1 1 1 1 1 1 1 1 1 1 1 1 1 1 0 0 0 0 0 1 1 1 1 1 1 1
2 2 2 2 2 2 2 1 1 1 1 1 1 1 1 1 1 1 1 1 1 1 1 1 1 1 1 1 1 1 1 0 0 0 0 0 1 1 1 1 1 1 1
2 2 2 2 2 2 2 1 1 1 1 1 1 1 1 1 1 1 1 1 1 1 1 1 1 1 1 1 1 1 0 0 0 0 0 1 1 1 1 1 1 1 1
3 3 2 2 2 2 2 1 1 1 1 1 1 1 1 1 1 1 1 1 1 1 1 1 1 1 1 1 1 1 0 0 0 1 1 1 1 1 1 1 1 1 1
2 2 2 2 2 2 2 2 2 1 1 1 1 1 1 1 1 1 1 1 1 1 1 0 0 1 1 1 1 1 0 0 0 1 1 1 1 1 1 1 1 1 1
1 1 2 2 2 2 3 2 2 2 2 2 1 1 1 1 1 1 1 1 1 1 0 0 0 0 1 1 1 1 0 0 0 1 1 1 1 1 1 1 1 1 1
0 1 1 2 2 3 3 3 2 2 2 2 2 1 1 2 2 1 1 1 1 1 1 0 0 0 0 0 0 0 0 0 0 1 1 1 1 1 1 1 1 1 1
1 1 1 1 2 3 3 3 3 3 3 2 2 2 2 2 2 2 1 1 1 1 1 0 0 0 0 0 0 0 0 0 0 1 1 1 1 1 1 1 1 1 1
1 1 1 1 1 3 3 3 3 3 3 3 3 2 2 2 2 2 1 1 1 1 1 0 0 0 0 0 0 0 0 0 0 1 1 1 1 1 1 1 1 1 1
1 1 1 0 1 2 3 4 3 3 3 3 3 3 2 2 2 2 1 1 1 1 1 0 0 0 0 0 0 0 0 0 0 1 1 1 1 1 1 1 1 1 1
1 1 1 0 0 1 3 4 4 3 3 4 4 3 2 2 2 2 2 1 1 1 1 0 0 0 0 0 0 0 0 0 0 1 1 1 1 1 1 1 1 1 1
0 0 0 0 0 0 2 3 4 3 3 3 4 3 3 2 2 2 2 1 1 1 1 0 0 0 0 0 0 0 0 0 0 1 1 1 1 1 1 1 0 0 0
0 0 0 0 0 0 1 2 3 3 3 3 3 3 2 2 2 1 1 1 1 1 1 0 0 0 0 0 0 0 0 0 0 1 1 1 1 1 1 1 0 0 0
0 0 0 0 0 0 0 1 2 3 2 3 3 3 2 2 2 1 1 1 1 1 1 0 0 0 0 0 0 0 0 0 0 0 0 0 0 0 0 0 0 0 0
0 0 0 0 0 0 0 1 2 2 3 3 3 2 2 2 2 1 1 1 1 1 1 0 0 0 0 0 0 0 0 0 0 0 0 0 0 0 0 0 0 0 0
0 0 0 0 0 0 0 0 1 2 2 3 3 2 2 2 2 1 1 0 0 1 1 0 0 0 0 0 0 0 0 0 0 0 0 0 0 0 0 0 0 0 0
0 0 0 0 0 0 0 0 0 1 2 3 3 2 1 1 1 1 0 0 0 0 0 0 0 0 0 0 0 0 0 0 0 0 0 0 0 0 0 0 0 0 0
0 0 0 0 0 0 0 0 0 0 1 3 3 2 1 1 1 1 0 0 0 0 0 0 0 0 0 0 0 0 0 0 0 0 0 0 0 0 0 0 0 0 0
Wind_Speed
4 4 7 8 8 9 9 9 9 9 9 9 9 8 7 8 9 9 9 10 10 10 11 11 11 12 12 13 12 13 13 13 14 14 14 13 13 13 13 13 13 10 16
4 4 7 8 8 9 9 10 10 10 9 9 9 9 7 7 8 8 9 9 10 10 10 10 11 11 11 12 11 11 11 11 11 11 11 10 11 12 13 13 12 10 15
5 5 6 8 9 9 9 10 10 10 10 9 9 9 8 7 7 8 9 9 9 9 10 10 10 10 11 11 10 10 9 9 8 7 7 5 7 12 12 13 13 14 14
5 5 5 8 9 9 9 9 9 9 9 9 9 9 8 8 7 7 8 8 9 9 9 10 10 10 10 9 9 9 8 6 6 6 4 5 6 11 12 12 13 13 13
6 5 6 8 9 9 9 9 9 8 9 9 9 9 8 8 8 7 7 8 9 9 9 9 9 9 9 8 8 8 7 6 6 5 5 5 5 10 11 12 12 12 12
6 6 6 8 9 9 9 9 9 8 8 9 9 9 8 8 7 8 8 8 8 8 8 8 9 9 9 8 7 7 6 6 5 3 4 5 5 9 11 11 11 12 12
5 5 5 9 8 9 8 9 9 8 8 8 8 8 8 8 8 8 8 8 8 8 7 8 8 8 7 7 7 7 7 6 3 4 4 4 5 10 10 10 11 11 11
5 5 5 8 9 9 9 8 9 8 7 7 8 8 8 8 8 8 8 8 8 8 7 7 7 7 7 6 6 7 7 6 4 4 4 4 7 10 10 10 10 11 11
5 5 4 3 5 8 8 8 7 8 7 7 7 7 8 8 8 8 7 7 7 7 7 6 6 6 6 5 5 6 7 6 3 2 4 4 7 9 9 9 9 10 11
4 4 4 3 3 3 3 6 7 7 7 7 6 7 7 7 7 7 6 6 6 7 6 6 6 5 5 4 4 4 5 4 2 3 2 3 7 8 8 8 8 9 9
4 3 3 3 3 2 2 4 4 5 5 5 4 5 4 2 3 3 5 6 6 6 6 5 5 5 4 3 2 3 3 1 1 2 2 5 7 7 7 7 7 8 9
3 3 3 2 2 2 2 2 1 1 2 2 2 2 1 2 2 3 4 5 5 5 5 5 4 3 2 0 1 2 1 1 1 2 2 5 6 6 7 6 6 7 8
2 2 2 2 2 2 2 1 1 1 1 2 2 2 2 2 2 2 2 2 2 2 2 2 2 1 1 1 0 0 1 1 1 1 2 4 5 6 6 6 6 6 6
2 3 2 2 2 2 2 1 1 1 1 1 2 3 2 1 2 1 1 1 1 1 1 1 1 1 1 2 1 1 1 1 1 1 2 3 4 4 5 5 5 5 5
2 3 2 2 2 2 1 1 2 1 1 1 2 2 3 2 1 1 1 1 1 1 1 1 1 1 1 1 1 1 1 0 1 1 2 3 3 3 4 4 4 5 5
2 2 3 2 2 2 1 1 1 1 1 1 1 2 3 2 1 1 1 1 1 1 1 1 1 1 1 1 1 1 1 1 1 1 2 2 2 2 3 4 4 4 5
1 2 2 3 2 1 1 1 1 1 1 1 1 1 2 2 2 1 1 1 1 1 1 0 0 1 1 1 1 2 1 1 0 1 1 2 2 2 2 3 3 3 5
1 1 2 2 3 2 1 1 1 1 1 1 1 1 2 2 2 1 1 1 1 1 1 0 0 1 1 1 1 1 1 1 1 1 1 2 2 2 2 2 2 3 4
2 1 1 2 2 2 2 1 0 1 1 0 0 1 1 2 1 1 1 1 1 1 1 1 1 1 1 1 1 1 2 1 1 1 1 2 2 2 2 2 3 2 2
2 1 1 2 2 2 1 1 1 1 1 0 0 1 1 1 1 1 0 1 1 1 1 0 0 1 0 0 1 2 2 2 2 2 2 2 2 2 2 2 2 2 2
2 2 2 2 1 1 1 1 1 1 1 0 0 1 1 1 1 0 0 0 0 0 1 1 0 0 0 0 0 1 2 2 2 2 2 2 2 2 2 2 2 2 2
1 1 1 1 1 1 1 1 1 1 1 1 0 1 1 1 2 1 0 0 0 0 1 1 0 0 1 0 1 0 1 1 1 1 1 1 1 1 1 2 2 2 2
1 0 1 1 1 1 1 1 1 1 1 0 0 0 1 1 1 1 1 1 1 1 1 1 1 1 1 1 1 1 1 1 1 2 1 0 1 0 0 1 1 2 2
0 0 0 1 1 1 1 1 1 1 1 1 1 1 1 1 1 1 1 1 1 1 1 2 1 1 2 2 1 1 1 1 1 1 1 1 1 1 1 1 0 0 1
0 0 0 1 1 1 1 1 1 2 2 1 1 1 1 1 1 1 1 1 1 1 2 2 2 2 2 2 2 1 1 1 1 2 2 2 1 1 1 1 1 1 1
0 0 0 1 1 1 1 2 2 3 3 2 2 2 2 1 1 2 1 1 1 1 2 2 2 2 2 3 2 1 1 2 2 2 2 2 2 2 2 1 1 1 1
Wind_Direction
52 49 25 31 42 46 50 55 53 51 48 46 47 54 60 65 66 66 65 63 64 64 64 64 64 63 63 63 66 67 68 70 72 72 70 68 70 73 76 78 77 75 79
68 60 38 35 43 49 51 55 51 50 48 48 48 49 56 64 68 67 67 65 65 66 65 65 65 65 65 64 67 71 72 73 74 73 71 66 67 70 73 74 77 80 81
74 69 54 39 44 49 53 55 53 51 50 50 49 47 53 61 68 70 68 66 65 66 65 65 66 66 66 65 68 72 73 72 73 72 76 77 74 74 77 77 80 82 82
78 73 61 45 48 51 53 55 56 53 50 49 46 45 52 58 64 71 70 67 65 65 66 67 67 67 68 66 67 69 68 62 53 52 68 71 76 80 82 83 84 85 84
74 73 64 53 52 53 54 54 56 55 51 49 45 45 49 56 60 64 68 67 66 65 66 68 69 68 67 67 67 66 58 48 39 47 63 65 72 85 84 83 83 84 86
74 71 60 53 53 53 56 54 55 57 54 51 47 47 46 52 60 62 60 64 67 68 66 67 70 68 65 64 61 55 43 33 35 51 64 70 75 89 86 85 86 85 85
75 74 67 50 51 51 53 54 50 53 53 50 49 50 48 48 56 62 62 61 62 67 68 68 71 71 65 61 53 41 31 21 36 51 57 66 81 92 89 87 89 91 91
81 79 76 53 47 47 47 51 50 46 50 48 47 51 49 49 51 56 62 63 62 62 67 69 70 71 67 61 50 34 22 21 42 63 68 72 87 94 91 87 89 91 91
79 81 77 64 55 46 42 42 47 43 43 47 45 49 49 48 48 50 55 59 60 59 59 64 66 69 65 60 48 31 23 28 30 50 75 80 91 98 96 92 96 96 94
74 78 74 59 51 50 42 36 41 41 40 41 41 41 42 46 48 47 48 54 57 57 53 58 62 67 64 60 46 23 5 19 38 55 65 88 96 102 103 99 97 99 98
63 70 76 68 53 37 40 39 42 41 38 39 38 40 45 50 55 52 43 46 54 54 51 54 60 57 52 47 28 359 349 28 55 70 70 97 102 107 108 106 102 101 104
45 51 57 54 55 37 30 42 27 56 52 41 30 41 38 42 38 48 46 47 50 50 46 42 37 39 25 16 359 342 347 27 49 88 94 106 111 112 117 112 111 106 109
47 35 45 38 47 43 24 29 18 35 39 33 24 20 38 49 45 52 58 50 55 53 46 33 17 338 344 349 356 315 333 14 59 92 115 114 115 120 123 126 120 122 117
53 31 27 26 33 30 28 21 25 30 36 25 21 14 21 37 38 37 52 34 29 35 35 15 334 326 344 337 346 348 4 24 69 88 117 123 125 131 134 137 138 137 134
44 29 15 24 22 15 23 5 22 26 42 35 28 6 20 36 28 22 38 31 9 24 29 349 342 336 340 331 339 358 5 41 91 103 119 120 131 143 147 148 153 156 156
51 29 12 8 16 20 23 5 10 17 42 40 36 10 18 23 12 17 28 19 8 8 17 323 349 347 322 332 344 345 339 350 114 122 141 141 142 152 163 159 160 170 168
68 40 13 9 10 15 15 351 14 13 42 41 31 14 18 20 12 13 29 16 4 359 336 312 26 15 348 347 349 341 337 342 18 163 163 160 165 164 169 171 169 178 179
92 63 18 7 8 2 354 343 355 7 36 37 19 26 23 21 14 18 22 359 4 8 333 1 61 42 12 353 338 321 323 318 303 220 173 174 170 174 175 175 180 182 185
104 83 42 22 8 357 357 327 360 357 17 31 8 36 27 16 16 28 15 350 7 6 340 356 30 39 28 1 321 304 302 284 269 250 193 185 183 174 170 177 184 196 204
100 88 61 35 8 1 353 345 344 349 336 330 24 39 20 14 2 12 6 353 7 6 347 7 27 352 28 24 315 296 278 265 248 227 210 193 186 174 175 183 181 200 215
75 73 52 20 0 10 356 327 309 287 274 286 16 24 17 2 345 309 280 7 350 305 318 319 82 15 346 68 20 309 294 264 235 218 197 186 183 185 181 185 184 184 200
66 51 45 19 1 352 334 301 255 276 253 210 45 17 1 344 336 318 307 263 270 310 328 316 89 12 292 97 144 245 314 315 341 298 218 184 185 174 181 196 188 191 188
39 14 333 343 332 326 326 343 338 330 312 304 320 269 297 308 312 333 298 257 242 241 247 274 219 205 228 253 210 190 174 229 321 304 296 147 108 111 232 216 202 190 189
290 331 323 305 321 325 332 335 305 273 274 273 252 251 282 295 300 310 281 264 251 235 239 256 245 214 203 233 258 270 257 192 189 271 308 339 357 333 302 306 285 207 191
356 347 313 298 293 303 308 287 280 272 267 265 271 269 267 275 278 287 284 263 260 259 250 249 260 230 212 226 238 259 275 263 229 194 244 273 289 275 285 308 296 242 222
41 333 309 297 285 282 277 281 266 273 267 256 260 262 259 258 271 267 280 270 259 256 256 253 256 238 228 237 248 243 224 217 216 212 220 245 268 273 278 270 264 251 224